This is the latest recevied weather packets stored in our database for station/object EB2EMZ-14. If no packets are shown the sender has not sent any weather packets the latest 10 day(s).
| Time | Temp. | Humidity | Pressure | Rain* | Wind** | Luminosity | Snow |
|---|---|---|---|---|---|---|---|
| 1777822818 | 17.22° C | 69% | 1009.6 hPa | 0.51 mm | - | 0 W/m² | - |
| 1777822517 | 17.78° C | 67% | 1009.5 hPa | 0 mm | - | 0 W/m² | - |
| 1777822217 | 17.78° C | 66% | 1009.6 hPa | 0 mm | - | 0 W/m² | - |
| 1777821917 | 18.33° C | 64% | 1009.7 hPa | 0 mm | - | 0 W/m² | - |
| 1777821618 | 18.33° C | 63% | 1009.7 hPa | 0 mm | - | 0 W/m² | - |
| 1777821317 | 18.89° C | 62% | 1009.6 hPa | 0 mm | - | 0 W/m² | - |
| 1777821018 | 18.89° C | 61% | 1009.5 hPa | 0 mm | - | 0 W/m² | - |
| 1777820719 | 19.44° C | 61% | 1009.7 hPa | 0 mm | - | 0 W/m² | - |
| 1777820418 | 20° C | 61% | 1009.7 hPa | 0 mm | - | 0 W/m² | - |
| 1777820120 | 20.56° C | 61% | 1009.7 hPa | 0 mm | - | 0 W/m² | - |
| 1777819818 | 20.56° C | 62% | 1009.7 hPa | 0 mm | - | 0 W/m² | - |
| 1777819517 | 20.56° C | 63% | 1009.8 hPa | 0 mm | - | 0 W/m² | - |
| 1777819218 | 20.56° C | 62% | 1009.9 hPa | 0 mm | - | 0 W/m² | - |
| 1777818918 | 20.56° C | 63% | 1009.8 hPa | 0 mm | - | 0 W/m² | - |
| 1777818617 | 20.56° C | 64% | 1009.9 hPa | 0 mm | - | 0 W/m² | - |
| 1777818319 | 20.56° C | 63% | 1009.8 hPa | 0 mm | - | 0 W/m² | - |
| 1777818017 | 21.11° C | 62% | 1010 hPa | 0 mm | - | 0 W/m² | - |
| 1777817718 | 20.56° C | 64% | 1010 hPa | 0 mm | - | 0 W/m² | - |
| 1777817417 | 20.56° C | 62% | 1010.1 hPa | 0 mm | - | 0 W/m² | - |
| 1777817117 | 20.56° C | 62% | 1010.3 hPa | 0 mm | - | 0 W/m² | - |
| 1777816817 | 20.56° C | 63% | 1010.6 hPa | 0 mm | - | 0 W/m² | - |
| 1777816517 | 20° C | 64% | 1010.7 hPa | 0 mm | - | 0 W/m² | - |
| 1777816218 | 20° C | 63% | 1010.7 hPa | 0 mm | - | 0 W/m² | - |
| 1777815917 | 20.56° C | 64% | 1010.8 hPa | 0 mm | - | 0 W/m² | - |
| 1777815617 | 20° C | 64% | 1010.7 hPa | 0 mm | - | 0 W/m² | - |
* Rain latest hour (hover to see other rain measurements)
** Current wind speed in m/s (hover to see current wind gust speed)